contact:dominique.lefevre@mio.osupytheas.fr, maurice.libes@osupytheas.fr, didier.mallarino@osupytheas.fr
Project:EMSO http://www.emso-fr.org/EMSO-France
Depth: 2436.0 m
Title:EMSO Ligure Ouest : Data MII capteur CSTAR
DateTime,Latitude,Longitude,Instrument_Serial,Reference_Counts,Signal_Counts,Corrected_Signal_raw_counts,Calculated_Beam_c_inverse_meters,Internal_thermistor_counts
DateTime,Latitude,Longitude,Instrument_Serial,Reference_Counts,Signal_Counts,Corrected_Signal_raw_counts,Calculated_Beam_c_inverse_meters,Internal_thermistor_counts
2023-02-15T00:01:08,42.805,6.029,CST-1368DR,4384,4902,11881,01.093,551
2023-02-15T00:04:10,42.805,6.029,CST-1368DR,4384,4900,11875,01.095,551
2023-02-15T00:07:11,42.805,6.029,CST-1368DR,4384,4904,11885,01.092,551
2023-02-15T00:10:13,42.805,6.029,CST-1368DR,4384,4902,11880,01.094,551
2023-02-15T00:13:14,42.805,6.029,CST-1368DR,4383,4899,11875,01.095,551
2023-02-15T00:16:16,42.805,6.029,CST-1368DR,4384,4905,11887,01.091,551
2023-02-15T00:19:17,42.805,6.029,CST-1368DR,4383,4903,11885,01.092,551
2023-02-15T00:22:19,42.805,6.029,CST-1368DR,4384,4902,11880,01.094,551
2023-02-15T00:25:21,42.805,6.029,CST-1368DR,4384,4902,11881,01.093,551
2023-02-15T00:28:22,42.805,6.029,CST-1368DR,4384,4901,11879,01.094,551
2023-02-15T00:31:24,42.805,6.029,CST-1368DR,4384,4902,11880,01.094,551
2023-02-15T00:34:25,42.805,6.029,CST-1368DR,4384,4903,11883,01.093,551
2023-02-15T00:37:27,42.805,6.029,CST-1368DR,4384,4903,11883,01.093,551
2023-02-15T00:40:28,42.805,6.029,CST-1368DR,4384,4902,11881,01.093,551
2023-02-15T00:43:30,42.805,6.029,CST-1368DR,4383,4902,11883,01.093,551
2023-02-15T00:46:32,42.805,6.029,CST-1368DR,4383,4901,11880,01.094,551
2023-02-15T00:49:33,42.805,6.029,CST-1368DR,4384,4900,11875,01.095,551
2023-02-15T00:52:35,42.805,6.029,CST-1368DR,4383,4899,11876,01.095,551
2023-02-15T00:55:36,42.805,6.029,CST-1368DR,4383,4901,11881,01.093,551
2023-02-15T00:58:38,42.805,6.029,CST-1368DR,4383,4899,11877,01.095,551
2023-02-15T01:01:40,42.805,6.029,CST-1368DR,4383,4899,11876,01.095,551
2023-02-15T01:04:41,42.805,6.029,CST-1368DR,4384,4900,11875,01.095,551
2023-02-15T01:07:43,42.805,6.029,CST-1368DR,4384,4898,11871,01.097,551
2023-02-15T01:10:44,42.805,6.029,CST-1368DR,4384,4892,11857,01.102,551
2023-02-15T01:13:46,42.805,6.029,CST-1368DR,4383,4897,11871,01.097,551
2023-02-15T01:16:47,42.805,6.029,CST-1368DR,4383,4902,11884,01.092,551
2023-02-15T01:19:49,42.805,6.029,CST-1368DR,4383,4896,11868,01.098,551
2023-02-15T01:22:51,42.805,6.029,CST-1368DR,4384,4897,11868,01.098,551
2023-02-15T01:25:52,42.805,6.029,CST-1368DR,4384,4903,11883,01.093,551
2023-02-15T01:28:54,42.805,6.029,CST-1368DR,4384,4899,11874,01.096,551
2023-02-15T01:31:55,42.805,6.029,CST-1368DR,4384,4899,11873,01.096,551
2023-02-15T01:34:57,42.805,6.029,CST-1368DR,4384,4901,11878,01.094,551
2023-02-15T01:37:58,42.805,6.029,CST-1368DR,4384,4898,11872,01.096,551
2023-02-15T01:41:00,42.805,6.029,CST-1368DR,4384,4899,11872,01.096,551
2023-02-15T01:44:02,42.805,6.029,CST-1368DR,4383,4899,11876,01.095,551
2023-02-15T01:47:03,42.805,6.029,CST-1368DR,4383,4899,11876,01.095,551
2023-02-15T01:50:05,42.805,6.029,CST-1368DR,4383,4898,11874,01.096,551
2023-02-15T01:53:06,42.805,6.029,CST-1368DR,4383,4898,11874,01.096,551
2023-02-15T01:56:08,42.805,6.029,CST-1368DR,4384,4898,11872,01.096,551
2023-02-15T01:59:10,42.805,6.029,CST-1368DR,4383,4898,11872,01.096,551
2023-02-15T02:02:11,42.805,6.029,CST-1368DR,4383,4899,11876,01.095,551
2023-02-15T02:05:13,42.805,6.029,CST-1368DR,4383,4896,11869,01.097,551
2023-02-15T02:08:14,42.805,6.029,CST-1368DR,4383,4899,11875,01.095,551
2023-02-15T02:11:16,42.805,6.029,CST-1368DR,4383,4901,11882,01.093,551
2023-02-15T02:14:17,42.805,6.029,CST-1368DR,4383,4899,11875,01.095,551
2023-02-15T02:17:19,42.805,6.029,CST-1368DR,4383,4899,11875,01.095,551
2023-02-15T02:20:21,42.805,6.029,CST-1368DR,4383,4899,11875,01.095,551
2023-02-15T02:23:22,42.805,6.029,CST-1368DR,4383,4899,11876,01.095,551
2023-02-15T02:26:24,42.805,6.029,CST-1368DR,4384,4898,11870,01.097,551
2023-02-15T02:29:25,42.805,6.029,CST-1368DR,4383,4899,11876,01.095,551
2023-02-15T02:32:27,42.805,6.029,CST-1368DR,4383,4899,11876,01.095,551
2023-02-15T02:35:28,42.805,6.029,CST-1368DR,4383,4898,11872,01.096,551
2023-02-15T02:38:30,42.805,6.029,CST-1368DR,4383,4899,11877,01.095,551
2023-02-15T02:41:32,42.805,6.029,CST-1368DR,4383,4898,11874,01.096,551
2023-02-15T02:44:33,42.805,6.029,CST-1368DR,4383,4902,11882,01.093,551
2023-02-15T02:47:35,42.805,6.029,CST-1368DR,4383,4900,11877,01.095,551
2023-02-15T02:50:36,42.805,6.029,CST-1368DR,4383,4896,11869,01.097,551
2023-02-15T02:53:38,42.805,6.029,CST-1368DR,4383,4897,11871,01.097,551
2023-02-15T02:56:39,42.805,6.029,CST-1368DR,4383,4899,11876,01.095,551
2023-02-15T02:59:41,42.805,6.029,CST-1368DR,4383,4901,11880,01.094,551
2023-02-15T03:02:43,42.805,6.029,CST-1368DR,4383,4899,11875,01.095,551
2023-02-15T03:05:44,42.805,6.029,CST-1368DR,4383,4899,11876,01.095,551
2023-02-15T03:08:46,42.805,6.029,CST-1368DR,4383,4899,11877,01.095,551
2023-02-15T03:11:47,42.805,6.029,CST-1368DR,4383,4901,11880,01.094,551
2023-02-15T03:14:49,42.805,6.029,CST-1368DR,4383,4899,11875,01.095,551
2023-02-15T03:17:51,42.805,6.029,CST-1368DR,4383,4899,11875,01.095,551
2023-02-15T03:20:52,42.805,6.029,CST-1368DR,4383,4900,11878,01.094,551
2023-02-15T03:23:54,42.805,6.029,CST-1368DR,4383,4901,11880,01.094,551
2023-02-15T03:26:55,42.805,6.029,CST-1368DR,4383,4901,11880,01.094,551
2023-02-15T03:29:57,42.805,6.029,CST-1368DR,4383,4899,11875,01.095,551
2023-02-15T03:32:58,42.805,6.029,CST-1368DR,4384,4900,11876,01.095,551
2023-02-15T03:36:00,42.805,6.029,CST-1368DR,4383,4899,11877,01.095,551
2023-02-15T03:39:02,42.805,6.029,CST-1368DR,4383,4900,11878,01.094,551
2023-02-15T03:42:03,42.805,6.029,CST-1368DR,4383,4896,11869,01.097,551
2023-02-15T03:45:05,42.805,6.029,CST-1368DR,4383,4897,11871,01.097,551
2023-02-15T03:48:06,42.805,6.029,CST-1368DR,4383,4898,11873,01.096,551
2023-02-15T03:51:08,42.805,6.029,CST-1368DR,4383,4896,11868,01.098,551
2023-02-15T03:54:09,42.805,6.029,CST-1368DR,4383,4898,11873,01.096,551
2023-02-15T03:57:11,42.805,6.029,CST-1368DR,4383,4899,11876,01.095,551
2023-02-15T04:00:13,42.805,6.029,CST-1368DR,4383,4897,11871,01.097,551
2023-02-15T04:03:14,42.805,6.029,CST-1368DR,4384,4898,11871,01.097,551
2023-02-15T04:06:16,42.805,6.029,CST-1368DR,4383,4896,11868,01.098,551
2023-02-15T04:09:17,42.805,6.029,CST-1368DR,4383,4899,11875,01.095,551
2023-02-15T04:12:19,42.805,6.029,CST-1368DR,4383,4898,11874,01.096,551
2023-02-15T04:15:21,42.805,6.029,CST-1368DR,4383,4899,11875,01.095,551
2023-02-15T04:18:22,42.805,6.029,CST-1368DR,4383,4898,11872,01.096,551
2023-02-15T04:21:24,42.805,6.029,CST-1368DR,4384,4899,11873,01.096,551
2023-02-15T04:24:25,42.805,6.029,CST-1368DR,4383,4901,11880,01.094,551
2023-02-15T04:27:27,42.805,6.029,CST-1368DR,4383,4899,11876,01.095,551
2023-02-15T04:30:28,42.805,6.029,CST-1368DR,4383,4901,11881,01.093,551
2023-02-15T04:33:30,42.805,6.029,CST-1368DR,4383,4900,11877,01.095,551
2023-02-15T04:36:32,42.805,6.029,CST-1368DR,4383,4899,11876,01.095,551
2023-02-15T04:39:33,42.805,6.029,CST-1368DR,4383,4900,11877,01.095,551
2023-02-15T04:42:35,42.805,6.029,CST-1368DR,4383,4899,11875,01.095,551
2023-02-15T04:45:36,42.805,6.029,CST-1368DR,4383,4900,11879,01.094,551
2023-02-15T04:48:38,42.805,6.029,CST-1368DR,4383,4901,11880,01.094,551
2023-02-15T04:51:39,42.805,6.029,CST-1368DR,4383,4899,11875,01.095,551
2023-02-15T04:54:41,42.805,6.029,CST-1368DR,4383,4899,11876,01.095,551
2023-02-15T04:57:43,42.805,6.029,CST-1368DR,4383,4901,11880,01.094,551
2023-02-15T05:00:44,42.805,6.029,CST-1368DR,4383,4900,11877,01.095,551
2023-02-15T05:03:46,42.805,6.029,CST-1368DR,4383,4901,11880,01.094,551
2023-02-15T05:06:47,42.805,6.029,CST-1368DR,4383,4899,11876,01.095,551
2023-02-15T05:09:49,42.805,6.029,CST-1368DR,4383,4898,11874,01.096,551
2023-02-15T05:12:51,42.805,6.029,CST-1368DR,4383,4898,11874,01.096,551
2023-02-15T05:15:52,42.805,6.029,CST-1368DR,4383,4899,11877,01.095,551
2023-02-15T05:18:54,42.805,6.029,CST-1368DR,4383,4899,11875,01.095,551
2023-02-15T05:21:55,42.805,6.029,CST-1368DR,4383,4899,11875,01.095,551
2023-02-15T05:24:57,42.805,6.029,CST-1368DR,4383,4896,11869,01.097,551
2023-02-15T05:27:58,42.805,6.029,CST-1368DR,4383,4898,11874,01.096,551
2023-02-15T05:31:00,42.805,6.029,CST-1368DR,4383,4898,11872,01.096,551
2023-02-15T05:34:02,42.805,6.029,CST-1368DR,4383,4898,11873,01.096,551
2023-02-15T05:37:03,42.805,6.029,CST-1368DR,4383,4897,11871,01.097,551
2023-02-15T05:40:05,42.805,6.029,CST-1368DR,4383,4898,11874,01.096,551
2023-02-15T05:43:06,42.805,6.029,CST-1368DR,4383,4900,11877,01.095,551
2023-02-15T05:46:08,42.805,6.029,CST-1368DR,4383,4900,11878,01.094,551
2023-02-15T05:49:09,42.805,6.029,CST-1368DR,4383,4900,11879,01.094,551
2023-02-15T05:52:11,42.805,6.029,CST-1368DR,4383,4898,11874,01.096,551
2023-02-15T05:55:13,42.805,6.029,CST-1368DR,4383,4900,11878,01.094,551
2023-02-15T05:58:14,42.805,6.029,CST-1368DR,4383,4901,11880,01.094,551
2023-02-15T06:01:16,42.805,6.029,CST-1368DR,4383,4899,11876,01.095,551
2023-02-15T06:04:17,42.805,6.029,CST-1368DR,4383,4899,11875,01.095,551
2023-02-15T06:07:19,42.805,6.029,CST-1368DR,4383,4899,11876,01.095,551
2023-02-15T06:10:21,42.805,6.029,CST-1368DR,4383,4900,11879,01.094,551
2023-02-15T06:13:22,42.805,6.029,CST-1368DR,4383,4901,11880,01.094,551
2023-02-15T06:16:24,42.805,6.029,CST-1368DR,4383,4899,11875,01.095,551
2023-02-15T06:19:25,42.805,6.029,CST-1368DR,4383,4899,11875,01.095,551
2023-02-15T06:22:27,42.805,6.029,CST-1368DR,4383,4899,11875,01.095,551
2023-02-15T06:25:28,42.805,6.029,CST-1368DR,4383,4900,11878,01.094,551
2023-02-15T06:28:30,42.805,6.029,CST-1368DR,4383,4900,11877,01.095,551
2023-02-15T06:31:32,42.805,6.029,CST-1368DR,4383,4900,11879,01.094,551
2023-02-15T06:34:33,42.805,6.029,CST-1368DR,4383,4899,11876,01.095,551
2023-02-15T06:37:35,42.805,6.029,CST-1368DR,4383,4902,11883,01.093,551
2023-02-15T06:40:36,42.805,6.029,CST-1368DR,4383,4900,11878,01.094,551
2023-02-15T06:43:38,42.805,6.029,CST-1368DR,4383,4903,11886,01.092,551
2023-02-15T06:46:39,42.805,6.029,CST-1368DR,4383,4904,11888,01.091,551
2023-02-15T06:49:41,42.805,6.029,CST-1368DR,4383,4902,11883,01.093,551
2023-02-15T06:52:43,42.805,6.029,CST-1368DR,4383,4903,11886,01.092,551
2023-02-15T06:55:44,42.805,6.029,CST-1368DR,4383,4904,11888,01.091,551
2023-02-15T06:58:46,42.805,6.029,CST-1368DR,4383,4909,11899,01.087,551
2023-02-15T07:01:47,42.805,6.029,CST-1368DR,4383,4903,11885,01.092,551
2023-02-15T07:04:49,42.805,6.029,CST-1368DR,4383,4904,11887,01.091,551
2023-02-15T07:07:51,42.805,6.029,CST-1368DR,4383,4900,11878,01.094,551
2023-02-15T07:10:52,42.805,6.029,CST-1368DR,4383,4904,11888,01.091,551
2023-02-15T07:13:54,42.805,6.029,CST-1368DR,4383,4903,11886,01.092,551
2023-02-15T07:16:55,42.805,6.029,CST-1368DR,4383,4904,11888,01.091,551
2023-02-15T07:19:57,42.805,6.029,CST-1368DR,4383,4903,11885,01.092,551
2023-02-15T07:22:58,42.805,6.029,CST-1368DR,4383,4902,11882,01.093,551
2023-02-15T07:26:00,42.805,6.029,CST-1368DR,4383,4903,11885,01.092,551
2023-02-15T07:29:02,42.805,6.029,CST-1368DR,4383,4904,11888,01.091,551
2023-02-15T07:32:03,42.805,6.029,CST-1368DR,4383,4904,11888,01.091,551
2023-02-15T07:35:05,42.805,6.029,CST-1368DR,4383,4903,11885,01.092,551
2023-02-15T07:38:06,42.805,6.029,CST-1368DR,4383,4903,11885,01.092,551
2023-02-15T07:41:08,42.805,6.029,CST-1368DR,4383,4906,11892,01.090,551
2023-02-15T07:44:09,42.805,6.029,CST-1368DR,4383,4905,11891,01.090,551
2023-02-15T07:47:11,42.805,6.029,CST-1368DR,4383,4904,11888,01.091,551
2023-02-15T07:50:13,42.805,6.029,CST-1368DR,4383,4904,11888,01.091,551
2023-02-15T07:53:14,42.805,6.029,CST-1368DR,4383,4902,11883,01.093,551
2023-02-15T07:56:16,42.805,6.029,CST-1368DR,4383,4902,11884,01.092,551
2023-02-15T07:59:17,42.805,6.029,CST-1368DR,4383,4904,11887,01.091,551
2023-02-15T08:02:19,42.805,6.029,CST-1368DR,4383,4904,11889,01.091,551
2023-02-15T08:05:21,42.805,6.029,CST-1368DR,4383,4904,11887,01.091,551
2023-02-15T08:08:22,42.805,6.029,CST-1368DR,4383,4904,11888,01.091,551
2023-02-15T08:11:24,42.805,6.029,CST-1368DR,4383,4903,11886,01.092,551
2023-02-15T08:14:25,42.805,6.029,CST-1368DR,4383,4905,11890,01.090,551
2023-02-15T08:17:27,42.805,6.029,CST-1368DR,4383,4905,11890,01.090,551
2023-02-15T08:20:28,42.805,6.029,CST-1368DR,4383,4904,11887,01.091,551
2023-02-15T08:23:30,42.805,6.029,CST-1368DR,4383,4904,11887,01.091,551
2023-02-15T08:26:32,42.805,6.029,CST-1368DR,4383,4893,11860,01.100,551
2023-02-15T08:29:33,42.805,6.029,CST-1368DR,4383,4909,11901,01.087,551
2023-02-15T08:32:35,42.805,6.029,CST-1368DR,4383,4902,11883,01.093,551
2023-02-15T08:35:36,42.805,6.029,CST-1368DR,4383,4903,11885,01.092,551
2023-02-15T08:38:38,42.805,6.029,CST-1368DR,4383,4903,11885,01.092,551
2023-02-15T08:41:39,42.805,6.029,CST-1368DR,4383,4901,11881,01.093,551
2023-02-15T08:44:41,42.805,6.029,CST-1368DR,4383,4904,11888,01.091,551
2023-02-15T08:47:43,42.805,6.029,CST-1368DR,4383,4902,11883,01.093,551
2023-02-15T08:50:44,42.805,6.029,CST-1368DR,4383,4906,11892,01.090,551
2023-02-15T08:53:46,42.805,6.029,CST-1368DR,4383,4904,11888,01.091,551
2023-02-15T08:56:47,42.805,6.029,CST-1368DR,4383,4903,11886,01.092,551
2023-02-15T08:59:49,42.805,6.029,CST-1368DR,4383,4904,11888,01.091,551
2023-02-15T09:02:51,42.805,6.029,CST-1368DR,4383,4904,11887,01.091,551
2023-02-15T09:05:52,42.805,6.029,CST-1368DR,4383,4901,11882,01.093,551
2023-02-15T09:08:54,42.805,6.029,CST-1368DR,4383,4902,11883,01.093,551
2023-02-15T09:11:55,42.805,6.029,CST-1368DR,4383,4904,11887,01.091,551
2023-02-15T09:14:57,42.805,6.029,CST-1368DR,4383,4903,11886,01.092,551
2023-02-15T09:17:58,42.805,6.029,CST-1368DR,4383,4902,11882,01.093,551
2023-02-15T09:21:00,42.805,6.029,CST-1368DR,4383,4898,11872,01.096,551
2023-02-15T09:24:02,42.805,6.029,CST-1368DR,4383,4902,11884,01.092,551
2023-02-15T09:27:03,42.805,6.029,CST-1368DR,4383,4902,11883,01.093,551
2023-02-15T09:30:05,42.805,6.029,CST-1368DR,4383,4902,11883,01.093,551
2023-02-15T09:33:06,42.805,6.029,CST-1368DR,4383,4902,11884,01.092,551
2023-02-15T09:36:08,42.805,6.029,CST-1368DR,4383,4902,11883,01.093,551
2023-02-15T09:39:09,42.805,6.029,CST-1368DR,4383,4902,11884,01.092,551
2023-02-15T09:42:11,42.805,6.029,CST-1368DR,4383,4903,11885,01.092,551
2023-02-15T09:45:13,42.805,6.029,CST-1368DR,4383,4903,11885,01.092,551
2023-02-15T09:48:14,42.805,6.029,CST-1368DR,4383,4903,11885,01.092,551
2023-02-15T09:51:16,42.805,6.029,CST-1368DR,4383,4903,11885,01.092,551
2023-02-15T09:54:17,42.805,6.029,CST-1368DR,4383,4903,11886,01.092,551
2023-02-15T09:57:19,42.805,6.029,CST-1368DR,4383,4903,11885,01.092,551
2023-02-15T10:00:21,42.805,6.029,CST-1368DR,4383,4905,11889,01.091,551
2023-02-15T10:03:22,42.805,6.029,CST-1368DR,4383,4902,11884,01.092,551
2023-02-15T10:06:24,42.805,6.029,CST-1368DR,4383,4902,11882,01.093,551
2023-02-15T10:09:25,42.805,6.029,CST-1368DR,4383,4901,11880,01.094,551
2023-02-15T10:12:27,42.805,6.029,CST-1368DR,4383,4902,11883,01.093,551
2023-02-15T10:15:28,42.805,6.029,CST-1368DR,4383,4901,11880,01.094,551
2023-02-15T10:18:30,42.805,6.029,CST-1368DR,4383,4904,11888,01.091,551
2023-02-15T10:21:32,42.805,6.029,CST-1368DR,4383,4902,11882,01.093,551
2023-02-15T10:24:33,42.805,6.029,CST-1368DR,4383,4902,11883,01.093,551
2023-02-15T10:27:35,42.805,6.029,CST-1368DR,4383,4901,11882,01.093,551
2023-02-15T10:30:36,42.805,6.029,CST-1368DR,4383,4902,11884,01.092,551
2023-02-15T10:33:38,42.805,6.029,CST-1368DR,4383,4902,11884,01.092,551
2023-02-15T10:36:40,42.805,6.029,CST-1368DR,4383,4903,11885,01.092,551
2023-02-15T10:39:41,42.805,6.029,CST-1368DR,4383,4902,11884,01.092,551
2023-02-15T10:42:43,42.805,6.029,CST-1368DR,4383,4903,11885,01.092,551
2023-02-15T10:45:44,42.805,6.029,CST-1368DR,4383,4902,11883,01.093,551
2023-02-15T10:48:46,42.805,6.029,CST-1368DR,4383,4904,11888,01.091,551
2023-02-15T10:51:47,42.805,6.029,CST-1368DR,4383,4900,11878,01.094,551
2023-02-15T10:54:49,42.805,6.029,CST-1368DR,4383,4897,11871,01.097,551
2023-02-15T10:57:51,42.805,6.029,CST-1368DR,4383,4902,11883,01.093,551
2023-02-15T11:00:52,42.805,6.029,CST-1368DR,4383,4901,11882,01.093,551
2023-02-15T11:03:54,42.805,6.029,CST-1368DR,4383,4901,11880,01.094,551
2023-02-15T11:06:55,42.805,6.029,CST-1368DR,4383,4901,11881,01.093,551
2023-02-15T11:09:57,42.805,6.029,CST-1368DR,4383,4900,11879,01.094,551
2023-02-15T11:12:58,42.805,6.029,CST-1368DR,4383,4901,11880,01.094,551
2023-02-15T11:16:00,42.805,6.029,CST-1368DR,4383,4901,11881,01.093,551
2023-02-15T11:19:02,42.805,6.029,CST-1368DR,4383,4901,11882,01.093,551
2023-02-15T11:22:03,42.805,6.029,CST-1368DR,4383,4899,11875,01.095,551
2023-02-15T11:25:05,42.805,6.029,CST-1368DR,4383,4902,11882,01.093,551
2023-02-15T11:28:06,42.805,6.029,CST-1368DR,4383,4901,11880,01.094,551
2023-02-15T11:31:08,42.805,6.029,CST-1368DR,4383,4902,11883,01.093,551
2023-02-15T11:34:10,42.805,6.029,CST-1368DR,4383,4900,11878,01.094,551
2023-02-15T11:37:11,42.805,6.029,CST-1368DR,4383,4904,11889,01.091,551
2023-02-15T11:40:13,42.805,6.029,CST-1368DR,4383,4900,11879,01.094,551
2023-02-15T11:43:14,42.805,6.029,CST-1368DR,4383,4901,11880,01.094,551
2023-02-15T11:46:16,42.805,6.029,CST-1368DR,4383,4901,11881,01.093,551
2023-02-15T11:49:17,42.805,6.029,CST-1368DR,4383,4899,11877,01.095,551
2023-02-15T11:52:19,42.805,6.029,CST-1368DR,4383,4899,11877,01.095,551
2023-02-15T11:55:21,42.805,6.029,CST-1368DR,4383,4902,11884,01.092,551
2023-02-15T11:58:22,42.805,6.029,CST-1368DR,4383,4899,11877,01.095,551
2023-02-15T12:01:24,42.805,6.029,CST-1368DR,4383,4899,11876,01.095,551
2023-02-15T12:04:25,42.805,6.029,CST-1368DR,4383,4900,11877,01.095,551
2023-02-15T12:07:27,42.805,6.029,CST-1368DR,4383,4899,11875,01.095,551
2023-02-15T12:10:28,42.805,6.029,CST-1368DR,4383,4899,11875,01.095,551
2023-02-15T12:13:30,42.805,6.029,CST-1368DR,4383,4899,11875,01.095,551
2023-02-15T12:16:32,42.805,6.029,CST-1368DR,4383,4899,11876,01.095,551
2023-02-15T12:19:33,42.805,6.029,CST-1368DR,4383,4899,11875,01.095,551
2023-02-15T12:22:35,42.805,6.029,CST-1368DR,4383,4899,11875,01.095,551
2023-02-15T12:25:36,42.805,6.029,CST-1368DR,4383,4899,11876,01.095,551
2023-02-15T12:28:38,42.805,6.029,CST-1368DR,4383,4899,11875,01.095,551
2023-02-15T12:31:39,42.805,6.029,CST-1368DR,4383,4897,11871,01.097,551
2023-02-15T12:34:41,42.805,6.029,CST-1368DR,4383,4898,11874,01.096,551
2023-02-15T12:37:43,42.805,6.029,CST-1368DR,4383,4898,11872,01.096,551
2023-02-15T12:40:44,42.805,6.029,CST-1368DR,4383,4897,11871,01.097,551
2023-02-15T12:43:46,42.805,6.029,CST-1368DR,4383,4898,11873,01.096,551
2023-02-15T12:46:47,42.805,6.029,CST-1368DR,4383,4898,11874,01.096,551
2023-02-15T12:49:49,42.805,6.029,CST-1368DR,4383,4899,11875,01.095,551
2023-02-15T12:52:51,42.805,6.029,CST-1368DR,4383,4898,11873,01.096,551
2023-02-15T12:55:52,42.805,6.029,CST-1368DR,4383,4898,11874,01.096,551
2023-02-15T12:58:54,42.805,6.029,CST-1368DR,4383,4899,11876,01.095,551
2023-02-15T13:01:55,42.805,6.029,CST-1368DR,4383,4901,11882,01.093,551
2023-02-15T13:04:57,42.805,6.029,CST-1368DR,4383,4899,11876,01.095,551
2023-02-15T13:07:58,42.805,6.029,CST-1368DR,4383,4899,11876,01.095,551
2023-02-15T13:11:00,42.805,6.029,CST-1368DR,4383,4899,11875,01.095,551
2023-02-15T13:14:02,42.805,6.029,CST-1368DR,4383,4898,11873,01.096,551
2023-02-15T13:17:03,42.805,6.029,CST-1368DR,4383,4899,11875,01.095,551
2023-02-15T13:20:05,42.805,6.029,CST-1368DR,4383,4897,11872,01.096,551
2023-02-15T13:23:06,42.805,6.029,CST-1368DR,4383,4897,11871,01.097,551
2023-02-15T13:26:08,42.805,6.029,CST-1368DR,4383,4898,11872,01.096,551
2023-02-15T13:29:09,42.805,6.029,CST-1368DR,4383,4899,11877,01.095,551
2023-02-15T13:32:11,42.805,6.029,CST-1368DR,4383,4898,11874,01.096,551
2023-02-15T13:35:13,42.805,6.029,CST-1368DR,4383,4898,11872,01.096,551
2023-02-15T13:38:14,42.805,6.029,CST-1368DR,4383,4898,11874,01.096,551
2023-02-15T13:41:16,42.805,6.029,CST-1368DR,4383,4902,11883,01.093,551
2023-02-15T13:44:17,42.805,6.029,CST-1368DR,4383,4897,11872,01.096,551
2023-02-15T13:47:19,42.805,6.029,CST-1368DR,4383,4898,11873,01.096,551
2023-02-15T13:50:21,42.805,6.029,CST-1368DR,4383,4898,11873,01.096,551
2023-02-15T13:53:22,42.805,6.029,CST-1368DR,4383,4896,11869,01.097,551
2023-02-15T13:56:24,42.805,6.029,CST-1368DR,4383,4898,11872,01.096,551
2023-02-15T13:59:25,42.805,6.029,CST-1368DR,4383,4897,11871,01.097,551
2023-02-15T14:02:27,42.805,6.029,CST-1368DR,4383,4897,11872,01.096,551
2023-02-15T14:05:28,42.805,6.029,CST-1368DR,4383,4897,11871,01.097,551
2023-02-15T14:08:30,42.805,6.029,CST-1368DR,4383,4896,11868,01.098,551
2023-02-15T14:11:32,42.805,6.029,CST-1368DR,4383,4896,11869,01.097,551
2023-02-15T14:14:33,42.805,6.029,CST-1368DR,4383,4897,11871,01.097,551
2023-02-15T14:17:35,42.805,6.029,CST-1368DR,4383,4894,11864,01.099,551
2023-02-15T14:20:36,42.805,6.029,CST-1368DR,4383,4897,11871,01.097,551
2023-02-15T14:23:38,42.805,6.029,CST-1368DR,4383,4895,11867,01.098,551
2023-02-15T14:26:39,42.805,6.029,CST-1368DR,4383,4896,11868,01.098,551
2023-02-15T14:29:41,42.805,6.029,CST-1368DR,4383,4897,11871,01.097,551
2023-02-15T14:32:43,42.805,6.029,CST-1368DR,4383,4897,11871,01.097,551
2023-02-15T14:35:44,42.805,6.029,CST-1368DR,4383,4896,11869,01.097,551
2023-02-15T14:38:46,42.805,6.029,CST-1368DR,4383,4896,11869,01.097,551
2023-02-15T14:41:47,42.805,6.029,CST-1368DR,4383,4897,11871,01.097,551
2023-02-15T14:44:49,42.805,6.029,CST-1368DR,4383,4896,11868,01.098,551
2023-02-15T14:47:51,42.805,6.029,CST-1368DR,4383,4897,11871,01.097,551
2023-02-15T14:50:52,42.805,6.029,CST-1368DR,4383,4897,11871,01.097,551
2023-02-15T14:53:54,42.805,6.029,CST-1368DR,4383,4898,11872,01.096,551
2023-02-15T14:56:55,42.805,6.029,CST-1368DR,4383,4898,11874,01.096,551
2023-02-15T14:59:57,42.805,6.029,CST-1368DR,4383,4896,11868,01.098,551
2023-02-15T15:02:58,42.805,6.029,CST-1368DR,4383,4898,11873,01.096,551
2023-02-15T15:06:00,42.805,6.029,CST-1368DR,4383,4896,11868,01.098,551
2023-02-15T15:09:02,42.805,6.029,CST-1368DR,4383,4897,11871,01.097,551
2023-02-15T15:12:03,42.805,6.029,CST-1368DR,4383,4896,11869,01.097,551
2023-02-15T15:15:05,42.805,6.029,CST-1368DR,4383,4896,11869,01.097,551
2023-02-15T15:18:06,42.805,6.029,CST-1368DR,4383,4895,11866,01.098,551
2023-02-15T15:21:08,42.805,6.029,CST-1368DR,4383,4897,11872,01.096,551
2023-02-15T15:24:10,42.805,6.029,CST-1368DR,4383,4896,11868,01.098,551
2023-02-15T15:27:11,42.805,6.029,CST-1368DR,4383,4896,11868,01.098,551
2023-02-15T15:30:13,42.805,6.029,CST-1368DR,4383,4899,11876,01.095,551
2023-02-15T15:33:14,42.805,6.029,CST-1368DR,4383,4897,11872,01.096,551
2023-02-15T15:36:16,42.805,6.029,CST-1368DR,4383,4896,11868,01.098,551
2023-02-15T15:39:17,42.805,6.029,CST-1368DR,4383,4894,11865,01.099,551
2023-02-15T15:42:19,42.805,6.029,CST-1368DR,4383,4896,11868,01.098,551
2023-02-15T15:45:21,42.805,6.029,CST-1368DR,4383,4898,11874,01.096,551
2023-02-15T15:48:22,42.805,6.029,CST-1368DR,4383,4897,11871,01.097,551
2023-02-15T15:51:24,42.805,6.029,CST-1368DR,4383,4896,11868,01.098,551
2023-02-15T15:54:25,42.805,6.029,CST-1368DR,4383,4896,11868,01.098,551
2023-02-15T15:57:27,42.805,6.029,CST-1368DR,4383,4898,11874,01.096,551
2023-02-15T16:00:28,42.805,6.029,CST-1368DR,4383,4896,11869,01.097,551
2023-02-15T16:03:30,42.805,6.029,CST-1368DR,4383,4895,11866,01.098,551
2023-02-15T16:06:32,42.805,6.029,CST-1368DR,4383,4898,11874,01.096,551
2023-02-15T16:09:33,42.805,6.029,CST-1368DR,4383,4899,11875,01.095,551
2023-02-15T16:12:35,42.805,6.029,CST-1368DR,4383,4898,11874,01.096,551
2023-02-15T16:15:36,42.805,6.029,CST-1368DR,4383,4896,11868,01.098,551
2023-02-15T16:18:38,42.805,6.029,CST-1368DR,4383,4895,11867,01.098,551
2023-02-15T16:21:40,42.805,6.029,CST-1368DR,4383,4901,11880,01.094,551
2023-02-15T16:24:41,42.805,6.029,CST-1368DR,4383,4897,11871,01.097,551
2023-02-15T16:27:43,42.805,6.029,CST-1368DR,4383,4895,11865,01.099,551
2023-02-15T16:30:44,42.805,6.029,CST-1368DR,4383,4892,11859,01.101,551
2023-02-15T16:33:46,42.805,6.029,CST-1368DR,4383,4895,11865,01.099,551
2023-02-15T16:36:47,42.805,6.029,CST-1368DR,4383,4894,11863,01.099,551